Year,Month,Day,Hour,Minute,Value (Times are PST for temperature in C)
2013,08,13,00,00,15.30
2013,08,13,00,01,15.30
2013,08,13,00,02,15.30
2013,08,13,00,03,15.30
2013,08,13,00,04,15.30
2013,08,13,00,05,15.30
2013,08,13,00,06,15.30
2013,08,13,00,07,15.40
2013,08,13,00,08,15.40
2013,08,13,00,09,15.40
2013,08,13,00,10,15.40
2013,08,13,00,11,15.40
2013,08,13,00,12,15.40
2013,08,13,00,13,15.40
2013,08,13,00,14,15.40
2013,08,13,00,15,15.40
2013,08,13,00,16,15.40
2013,08,13,00,17,15.50
2013,08,13,00,18,15.50
2013,08,13,00,19,15.50
2013,08,13,00,20,15.50
2013,08,13,00,21,15.60
2013,08,13,00,22,15.60
2013,08,13,00,23,15.60
2013,08,13,00,24,15.60
2013,08,13,00,25,15.60
2013,08,13,00,26,15.60
2013,08,13,00,27,15.60
2013,08,13,00,28,15.60
2013,08,13,00,29,15.60
2013,08,13,00,30,15.60
2013,08,13,00,31,15.60
2013,08,13,00,32,15.60
2013,08,13,00,33,15.60
2013,08,13,00,34,15.70
2013,08,13,00,35,15.60
2013,08,13,00,36,15.60
2013,08,13,00,37,15.60
2013,08,13,00,38,15.60
2013,08,13,00,39,15.60
2013,08,13,00,40,15.60
2013,08,13,00,41,15.60
2013,08,13,00,42,15.60
2013,08,13,00,43,15.60
2013,08,13,00,44,15.60
2013,08,13,00,45,15.60
2013,08,13,00,46,15.60
2013,08,13,00,47,15.60
2013,08,13,00,48,15.60
2013,08,13,00,49,15.70
2013,08,13,00,50,15.70
2013,08,13,00,51,15.70
2013,08,13,00,52,15.80
2013,08,13,00,53,15.70
2013,08,13,00,54,15.70
2013,08,13,00,55,15.70
2013,08,13,00,56,15.70
2013,08,13,00,57,15.60
2013,08,13,00,58,15.60
2013,08,13,00,59,15.60
2013,08,13,01,00,15.50
2013,08,13,01,01,15.50
2013,08,13,01,02,15.40
2013,08,13,01,03,15.40
2013,08,13,01,04,15.40
2013,08,13,01,05,15.40
2013,08,13,01,06,15.30
2013,08,13,01,07,15.30
2013,08,13,01,08,15.30
2013,08,13,01,09,15.30
2013,08,13,01,10,15.30
2013,08,13,01,11,15.30
2013,08,13,01,12,15.30
2013,08,13,01,13,15.40
2013,08,13,01,14,15.40
2013,08,13,01,15,15.40
2013,08,13,01,16,15.40
2013,08,13,01,17,15.40
2013,08,13,01,18,15.40
2013,08,13,01,19,15.40
2013,08,13,01,20,15.40
2013,08,13,01,21,15.40
2013,08,13,01,22,15.40
2013,08,13,01,23,15.40
2013,08,13,01,24,15.40
2013,08,13,01,25,15.50
2013,08,13,01,26,15.50
2013,08,13,01,27,15.60
2013,08,13,01,28,15.60
2013,08,13,01,29,15.60
2013,08,13,01,30,15.60
2013,08,13,01,31,15.60
2013,08,13,01,32,15.60
2013,08,13,01,33,15.60
2013,08,13,01,34,15.60
2013,08,13,01,35,15.60
2013,08,13,01,36,15.60
2013,08,13,01,37,15.60
2013,08,13,01,38,15.60
2013,08,13,01,39,15.60
2013,08,13,01,40,15.60
2013,08,13,01,41,15.60
2013,08,13,01,42,15.60
2013,08,13,01,43,15.70
2013,08,13,01,44,15.70
2013,08,13,01,45,15.70
2013,08,13,01,46,15.70
2013,08,13,01,47,15.70
2013,08,13,01,48,15.70
2013,08,13,01,49,15.70
2013,08,13,01,50,15.70
2013,08,13,01,51,15.80
2013,08,13,01,52,15.80
2013,08,13,01,53,15.80
2013,08,13,01,54,15.80
2013,08,13,01,55,15.80
2013,08,13,01,56,15.80
2013,08,13,01,57,15.80
2013,08,13,01,58,15.80
2013,08,13,01,59,15.80
2013,08,13,02,00,15.80
2013,08,13,02,01,15.80
2013,08,13,02,02,15.80
2013,08,13,02,03,15.80
2013,08,13,02,04,15.80
2013,08,13,02,05,15.80
2013,08,13,02,06,15.80
2013,08,13,02,07,15.90
2013,08,13,02,08,15.90
2013,08,13,02,09,15.90
2013,08,13,02,10,15.90
2013,08,13,02,11,15.90
2013,08,13,02,12,15.90
2013,08,13,02,13,15.90
2013,08,13,02,14,15.90
2013,08,13,02,15,15.90
2013,08,13,02,16,16.00
2013,08,13,02,17,16.00
2013,08,13,02,18,16.00
2013,08,13,02,19,16.00
2013,08,13,02,20,16.00
2013,08,13,02,21,16.00
2013,08,13,02,22,16.00
2013,08,13,02,23,16.00
2013,08,13,02,24,16.00
2013,08,13,02,25,16.00
2013,08,13,02,26,16.00
2013,08,13,02,27,16.00
2013,08,13,02,28,16.00
2013,08,13,02,29,16.00
2013,08,13,02,30,16.00
2013,08,13,02,31,16.00
2013,08,13,02,32,16.00
2013,08,13,02,33,16.00
2013,08,13,02,34,16.00
2013,08,13,02,35,16.00
2013,08,13,02,36,16.00
2013,08,13,02,37,16.00
2013,08,13,02,38,16.00
2013,08,13,02,39,16.00
2013,08,13,02,40,16.00
2013,08,13,02,41,16.00
2013,08,13,02,42,16.00
2013,08,13,02,43,16.00
2013,08,13,02,44,16.00
2013,08,13,02,45,16.00
2013,08,13,02,46,16.00
2013,08,13,02,47,16.00
2013,08,13,02,48,16.00
2013,08,13,02,49,16.00
2013,08,13,02,50,16.00
2013,08,13,02,51,16.00
2013,08,13,02,52,16.00
2013,08,13,02,53,16.00
2013,08,13,02,54,16.00
2013,08,13,02,55,16.00
2013,08,13,02,56,16.00
2013,08,13,02,57,16.00
2013,08,13,02,58,16.00
2013,08,13,02,59,16.00
2013,08,13,03,00,16.00
2013,08,13,03,01,16.00
2013,08,13,03,02,16.00
2013,08,13,03,03,16.00
2013,08,13,03,04,16.00
2013,08,13,03,05,16.00
2013,08,13,03,06,16.00
2013,08,13,03,07,16.00
2013,08,13,03,08,16.00
2013,08,13,03,09,16.10
2013,08,13,03,10,16.00
2013,08,13,03,11,16.10
2013,08,13,03,12,16.10
2013,08,13,03,13,16.10
2013,08,13,03,14,16.10
2013,08,13,03,15,16.10
2013,08,13,03,16,16.10
2013,08,13,03,17,16.10
2013,08,13,03,18,16.10
2013,08,13,03,19,16.10
2013,08,13,03,20,16.10
2013,08,13,03,21,16.10
2013,08,13,03,22,16.10
2013,08,13,03,23,16.10
2013,08,13,03,24,16.10
2013,08,13,03,25,16.10
2013,08,13,03,26,16.10
2013,08,13,03,27,16.10
2013,08,13,03,28,16.20
2013,08,13,03,29,16.20
2013,08,13,03,30,16.20
2013,08,13,03,31,16.20
2013,08,13,03,32,16.20
2013,08,13,03,33,16.20
2013,08,13,03,34,16.20
2013,08,13,03,35,16.20
2013,08,13,03,36,16.20
2013,08,13,03,37,16.20
2013,08,13,03,38,16.20
2013,08,13,03,39,16.30
2013,08,13,03,40,16.30
2013,08,13,03,41,16.30
2013,08,13,03,42,16.30
2013,08,13,03,43,16.30
2013,08,13,03,44,16.30
2013,08,13,03,45,16.30
2013,08,13,03,46,16.30
2013,08,13,03,47,16.40
2013,08,13,03,48,16.30
2013,08,13,03,49,16.30
2013,08,13,03,50,16.30
2013,08,13,03,51,16.30
2013,08,13,03,52,16.30
2013,08,13,03,53,16.30
2013,08,13,03,54,16.20
2013,08,13,03,55,16.20
2013,08,13,03,56,16.20
2013,08,13,03,57,16.20
2013,08,13,03,58,16.20
2013,08,13,03,59,16.20
2013,08,13,04,00,16.20
2013,08,13,04,01,16.20
2013,08,13,04,02,16.20
2013,08,13,04,03,16.20
2013,08,13,04,04,16.20
2013,08,13,04,05,16.20
2013,08,13,04,06,16.10
2013,08,13,04,07,16.10
2013,08,13,04,08,16.10
2013,08,13,04,09,16.10
2013,08,13,04,10,16.10
2013,08,13,04,11,16.10
2013,08,13,04,12,16.10
2013,08,13,04,13,16.10
2013,08,13,04,14,16.10
2013,08,13,04,15,16.10
2013,08,13,04,16,16.10
2013,08,13,04,17,16.10
2013,08,13,04,18,16.10
2013,08,13,04,19,16.10
2013,08,13,04,20,16.10
2013,08,13,04,21,16.20
2013,08,13,04,22,16.20
2013,08,13,04,23,16.20
2013,08,13,04,24,16.20
2013,08,13,04,25,16.20
2013,08,13,04,26,16.20
2013,08,13,04,27,16.20
2013,08,13,04,28,16.20
2013,08,13,04,29,16.20
2013,08,13,04,30,16.20
2013,08,13,04,31,16.20
2013,08,13,04,32,16.30
2013,08,13,04,33,16.30
2013,08,13,04,34,16.30
2013,08,13,04,35,16.30
2013,08,13,04,36,16.30
2013,08,13,04,37,16.30
2013,08,13,04,38,16.30
2013,08,13,04,39,16.30
2013,08,13,04,40,16.30
2013,08,13,04,41,16.30
2013,08,13,04,42,16.30
2013,08,13,04,43,16.30
2013,08,13,04,44,16.30
2013,08,13,04,45,16.30
2013,08,13,04,46,16.30
2013,08,13,04,47,16.30
2013,08,13,04,48,16.30
2013,08,13,04,49,16.30
2013,08,13,04,50,16.30
2013,08,13,04,51,16.30
2013,08,13,04,52,16.30
2013,08,13,04,53,16.30
2013,08,13,04,54,16.30
2013,08,13,04,55,16.30
2013,08,13,04,56,16.30
2013,08,13,04,57,16.30
2013,08,13,04,58,16.30
2013,08,13,04,59,16.30
2013,08,13,05,00,16.20
2013,08,13,05,01,16.20
2013,08,13,05,02,16.20
2013,08,13,05,03,16.20
2013,08,13,05,04,16.20
2013,08,13,05,05,16.20
2013,08,13,05,06,16.20
2013,08,13,05,07,16.20
2013,08,13,05,08,16.20
2013,08,13,05,09,16.20
2013,08,13,05,10,16.20
2013,08,13,05,11,16.20
2013,08,13,05,12,16.20
2013,08,13,05,13,16.20
2013,08,13,05,14,16.20
2013,08,13,05,15,16.20
2013,08,13,05,16,16.20
2013,08,13,05,17,16.20
2013,08,13,05,18,16.20
2013,08,13,05,19,16.20
2013,08,13,05,20,16.20
2013,08,13,05,21,16.20
2013,08,13,05,22,16.20
2013,08,13,05,23,16.10
2013,08,13,05,24,16.10
2013,08,13,05,25,16.10
2013,08,13,05,26,16.10
2013,08,13,05,27,16.10
2013,08,13,05,28,16.10
2013,08,13,05,29,16.10
2013,08,13,05,30,16.10
2013,08,13,05,31,16.10
2013,08,13,05,32,16.10
2013,08,13,05,33,16.10
2013,08,13,05,34,16.10
2013,08,13,05,35,16.10
2013,08,13,05,36,16.10
2013,08,13,05,37,16.10
2013,08,13,05,38,16.10
2013,08,13,05,39,16.10
2013,08,13,05,40,16.10
2013,08,13,05,41,16.10
2013,08,13,05,42,16.10
2013,08,13,05,43,16.10
2013,08,13,05,44,16.10
2013,08,13,05,45,16.10
2013,08,13,05,46,16.10
2013,08,13,05,47,16.10
2013,08,13,05,48,16.10
2013,08,13,05,49,16.10
2013,08,13,05,50,16.10
2013,08,13,05,51,16.10
2013,08,13,05,52,16.10
2013,08,13,05,53,16.10
2013,08,13,05,54,16.10
2013,08,13,05,55,16.10
2013,08,13,05,56,16.10
2013,08,13,05,57,16.10
2013,08,13,05,58,16.10
2013,08,13,05,59,16.10
2013,08,13,06,00,16.10
2013,08,13,06,01,16.10
2013,08,13,06,02,16.10
2013,08,13,06,03,16.10
2013,08,13,06,04,16.20
2013,08,13,06,05,16.20
2013,08,13,06,06,16.20
2013,08,13,06,07,16.20
2013,08,13,06,08,16.20
2013,08,13,06,09,16.20
2013,08,13,06,10,16.20
2013,08,13,06,11,16.20
2013,08,13,06,12,16.20
2013,08,13,06,13,16.20
2013,08,13,06,14,16.20
2013,08,13,06,15,16.20
2013,08,13,06,16,16.20
2013,08,13,06,17,16.20
2013,08,13,06,18,16.20
2013,08,13,06,19,16.20
2013,08,13,06,20,16.20
2013,08,13,06,21,16.20
2013,08,13,06,22,16.20
2013,08,13,06,23,16.20
2013,08,13,06,24,16.20
2013,08,13,06,25,16.20
2013,08,13,06,26,16.20
2013,08,13,06,27,16.30
2013,08,13,06,28,16.30
2013,08,13,06,29,16.30
2013,08,13,06,30,16.30
2013,08,13,06,31,16.30
2013,08,13,06,32,16.30
2013,08,13,06,33,16.30
2013,08,13,06,34,16.30
2013,08,13,06,35,16.30
2013,08,13,06,36,16.30
2013,08,13,06,37,16.30
2013,08,13,06,38,16.30
2013,08,13,06,39,16.30
2013,08,13,06,40,16.30
2013,08,13,06,41,16.30
2013,08,13,06,42,16.30
2013,08,13,06,43,16.30
2013,08,13,06,44,16.30
2013,08,13,06,45,16.30
2013,08,13,06,46,16.30
2013,08,13,06,47,16.30
2013,08,13,06,48,16.30
2013,08,13,06,49,16.30
2013,08,13,06,50,16.30
2013,08,13,06,51,16.30
2013,08,13,06,52,16.30
2013,08,13,06,53,16.30
2013,08,13,06,54,16.30
2013,08,13,06,55,16.30
2013,08,13,06,56,16.30
2013,08,13,06,57,16.30
2013,08,13,06,58,16.30
2013,08,13,06,59,16.30
2013,08,13,07,00,16.30
2013,08,13,07,01,16.30
2013,08,13,07,02,16.30
2013,08,13,07,03,16.30
2013,08,13,07,04,16.30
2013,08,13,07,05,16.30
2013,08,13,07,06,16.30
2013,08,13,07,07,16.30
2013,08,13,07,08,16.30
2013,08,13,07,09,16.30
2013,08,13,07,10,16.30
2013,08,13,07,11,16.30
2013,08,13,07,12,16.30
2013,08,13,07,13,16.30
2013,08,13,07,14,16.30
2013,08,13,07,15,16.30
2013,08,13,07,16,16.30
2013,08,13,07,17,16.30
2013,08,13,07,18,16.30
2013,08,13,07,19,16.40
2013,08,13,07,20,16.40
2013,08,13,07,21,16.40
2013,08,13,07,22,16.40
2013,08,13,07,23,16.40
2013,08,13,07,24,16.40
2013,08,13,07,25,16.40
2013,08,13,07,26,16.40
2013,08,13,07,27,16.40
2013,08,13,07,28,16.40
2013,08,13,07,29,16.50
2013,08,13,07,30,16.50
2013,08,13,07,31,16.50
2013,08,13,07,32,16.50
2013,08,13,07,33,16.50
2013,08,13,07,34,16.50
2013,08,13,07,35,16.60
2013,08,13,07,36,16.60
2013,08,13,07,37,16.60
2013,08,13,07,38,16.60
2013,08,13,07,39,16.70
2013,08,13,07,40,16.70
2013,08,13,07,41,16.70
2013,08,13,07,42,16.70
2013,08,13,07,43,16.80
2013,08,13,07,44,16.80
2013,08,13,07,45,16.80
2013,08,13,07,46,16.90
2013,08,13,07,47,16.90
2013,08,13,07,48,17.00
2013,08,13,07,49,17.00
2013,08,13,07,50,17.00
2013,08,13,07,51,17.10
2013,08,13,07,52,17.10
2013,08,13,07,53,17.10
2013,08,13,07,54,17.10
2013,08,13,07,55,17.20
2013,08,13,07,56,17.20
2013,08,13,07,57,17.20
2013,08,13,07,58,17.20
2013,08,13,07,59,17.20
2013,08,13,08,00,17.30
2013,08,13,08,01,17.30
2013,08,13,08,02,17.30
2013,08,13,08,03,17.30
2013,08,13,08,04,17.30
2013,08,13,08,05,17.30
2013,08,13,08,06,17.30
2013,08,13,08,07,17.40
2013,08,13,08,08,17.40
2013,08,13,08,09,17.40
2013,08,13,08,10,17.50
2013,08,13,08,11,17.50
2013,08,13,08,12,17.60
2013,08,13,08,13,17.60
2013,08,13,08,14,17.60
2013,08,13,08,15,17.70
2013,08,13,08,16,17.70
2013,08,13,08,17,17.70
2013,08,13,08,18,17.70
2013,08,13,08,19,17.70
2013,08,13,08,20,17.80
2013,08,13,08,21,17.80
2013,08,13,08,22,17.80
2013,08,13,08,23,17.80
2013,08,13,08,24,17.80
2013,08,13,08,25,17.90
2013,08,13,08,26,17.90
2013,08,13,08,27,17.90
2013,08,13,08,28,17.90
2013,08,13,08,29,18.00
2013,08,13,08,30,18.00
2013,08,13,08,31,18.00
2013,08,13,08,32,18.00
2013,08,13,08,33,17.90
2013,08,13,08,34,17.90
2013,08,13,08,35,17.90
2013,08,13,08,36,17.80
2013,08,13,08,37,17.80
2013,08,13,08,38,17.80
2013,08,13,08,39,17.70
2013,08,13,08,40,17.70
2013,08,13,08,41,17.70
2013,08,13,08,42,17.70
2013,08,13,08,43,17.70
2013,08,13,08,44,17.70
2013,08,13,08,45,17.70
2013,08,13,08,46,17.70
2013,08,13,08,47,17.70
2013,08,13,08,48,17.70
2013,08,13,08,49,17.70
2013,08,13,08,50,17.70
2013,08,13,08,51,17.70
2013,08,13,08,52,17.70
2013,08,13,08,53,17.70
2013,08,13,08,54,17.70
2013,08,13,08,55,17.70
2013,08,13,08,56,17.70
2013,08,13,08,57,17.70
2013,08,13,08,58,17.70
2013,08,13,08,59,17.70
2013,08,13,09,00,17.70
2013,08,13,09,01,17.70
2013,08,13,09,02,17.80
2013,08,13,09,03,17.80
2013,08,13,09,04,17.80
2013,08,13,09,05,17.80
2013,08,13,09,06,17.80
2013,08,13,09,07,17.80
2013,08,13,09,08,17.80
2013,08,13,09,09,17.80
2013,08,13,09,10,17.80
2013,08,13,09,11,17.80
2013,08,13,09,12,17.90
2013,08,13,09,13,17.90
2013,08,13,09,14,17.90
2013,08,13,09,15,17.90
2013,08,13,09,16,17.90
2013,08,13,09,17,17.90
2013,08,13,09,18,17.90
2013,08,13,09,19,17.90
2013,08,13,09,20,17.90
2013,08,13,09,21,17.90
2013,08,13,09,22,17.90
2013,08,13,09,23,17.90
2013,08,13,09,24,17.90
2013,08,13,09,25,17.90
2013,08,13,09,26,17.90
2013,08,13,09,27,17.90
2013,08,13,09,28,18.00
2013,08,13,09,29,18.00
2013,08,13,09,30,18.00
2013,08,13,09,31,18.00
2013,08,13,09,32,18.00
2013,08,13,09,33,18.00
2013,08,13,09,34,18.00
2013,08,13,09,35,18.10
2013,08,13,09,36,18.10
2013,08,13,09,37,18.10
2013,08,13,09,38,18.10
2013,08,13,09,39,18.20
2013,08,13,09,40,18.20
2013,08,13,09,41,18.20
2013,08,13,09,42,18.20
2013,08,13,09,43,18.30
2013,08,13,09,44,18.30
2013,08,13,09,45,18.30
2013,08,13,09,46,18.30
2013,08,13,09,47,18.30
2013,08,13,09,48,18.30
2013,08,13,09,49,18.30
2013,08,13,09,50,18.30
2013,08,13,09,51,18.40
2013,08,13,09,52,18.40
2013,08,13,09,53,18.50
2013,08,13,09,54,18.50
2013,08,13,09,55,18.60
2013,08,13,09,56,18.70
2013,08,13,09,57,18.70
2013,08,13,09,58,18.70
2013,08,13,09,59,18.70
2013,08,13,10,00,18.60
2013,08,13,10,01,18.60
2013,08,13,10,02,18.50
2013,08,13,10,03,18.50
2013,08,13,10,04,18.50
2013,08,13,10,05,18.50
2013,08,13,10,06,18.50
2013,08,13,10,07,18.60
2013,08,13,10,08,18.60
2013,08,13,10,09,18.60
2013,08,13,10,10,18.70
2013,08,13,10,11,18.70
2013,08,13,10,12,18.70
2013,08,13,10,13,18.70
2013,08,13,10,14,18.70
2013,08,13,10,15,18.70
2013,08,13,10,16,18.70
2013,08,13,10,17,18.70
2013,08,13,10,18,18.70
2013,08,13,10,19,18.70
2013,08,13,10,20,18.70
2013,08,13,10,21,18.70
2013,08,13,10,22,18.80
2013,08,13,10,23,18.80
2013,08,13,10,24,18.80
2013,08,13,10,25,18.80
2013,08,13,10,26,18.90
2013,08,13,10,27,18.90
2013,08,13,10,28,19.00
2013,08,13,10,29,19.10
2013,08,13,10,30,19.20
2013,08,13,10,31,19.30
2013,08,13,10,32,19.40
2013,08,13,10,33,19.40
2013,08,13,10,34,19.50
2013,08,13,10,35,19.60
2013,08,13,10,36,19.60
2013,08,13,10,37,19.60
2013,08,13,10,38,19.50
2013,08,13,10,39,19.50
2013,08,13,10,40,19.40
2013,08,13,10,41,19.40
2013,08,13,10,42,19.40
2013,08,13,10,43,19.40
2013,08,13,10,44,19.40
2013,08,13,10,45,19.40
2013,08,13,10,46,19.40
2013,08,13,10,47,19.30
2013,08,13,10,48,19.30
2013,08,13,10,49,19.30
2013,08,13,10,50,19.30
2013,08,13,10,51,19.30
2013,08,13,10,52,19.30
2013,08,13,10,53,19.30
2013,08,13,10,54,19.30
2013,08,13,10,55,19.30
2013,08,13,10,56,19.20
2013,08,13,10,57,19.20
2013,08,13,10,58,19.20
2013,08,13,10,59,19.20
2013,08,13,11,00,19.20
2013,08,13,11,01,19.20
2013,08,13,11,02,19.20
2013,08,13,11,03,19.20
2013,08,13,11,04,19.20
2013,08,13,11,05,19.30
2013,08,13,11,06,19.30
2013,08,13,11,07,19.30
2013,08,13,11,08,19.30
2013,08,13,11,09,19.40
2013,08,13,11,10,19.40
2013,08,13,11,11,19.50
2013,08,13,11,12,19.50
2013,08,13,11,13,19.60
2013,08,13,11,14,19.70
2013,08,13,11,15,19.70
2013,08,13,11,16,19.80
2013,08,13,11,17,19.80
2013,08,13,11,18,19.80
2013,08,13,11,19,19.90
2013,08,13,11,20,20.00
2013,08,13,11,21,20.00
2013,08,13,11,22,20.10
2013,08,13,11,23,20.20
2013,08,13,11,24,20.20
2013,08,13,11,25,20.20
2013,08,13,11,26,20.10
2013,08,13,11,27,20.10
2013,08,13,11,28,20.10
2013,08,13,11,29,20.00
2013,08,13,11,30,20.00
2013,08,13,11,31,20.00
2013,08,13,11,32,20.10
2013,08,13,11,33,20.10
2013,08,13,11,34,20.10
2013,08,13,11,35,20.10
2013,08,13,11,36,20.10
2013,08,13,11,37,20.00
2013,08,13,11,38,19.90
2013,08,13,11,39,19.80
2013,08,13,11,40,19.80
2013,08,13,11,41,19.80
2013,08,13,11,42,19.80
2013,08,13,11,43,19.80
2013,08,13,11,44,19.90
2013,08,13,11,45,20.00
2013,08,13,11,46,20.00
2013,08,13,11,47,20.10
2013,08,13,11,48,20.20
2013,08,13,11,49,20.20
2013,08,13,11,50,20.10
2013,08,13,11,51,20.10
2013,08,13,11,52,20.10
2013,08,13,11,53,20.00
2013,08,13,11,54,20.00
2013,08,13,11,55,19.90
2013,08,13,11,56,19.90
2013,08,13,11,57,19.90
2013,08,13,11,58,20.00
2013,08,13,11,59,20.10
2013,08,13,12,00,20.20
2013,08,13,12,01,20.30
2013,08,13,12,02,20.40
2013,08,13,12,03,20.50
2013,08,13,12,04,20.60
2013,08,13,12,05,20.60
2013,08,13,12,06,20.70
2013,08,13,12,07,20.70
2013,08,13,12,08,20.70
2013,08,13,12,09,20.70
2013,08,13,12,10,20.70
2013,08,13,12,11,20.70
2013,08,13,12,12,20.60
2013,08,13,12,13,20.60
2013,08,13,12,14,20.60
2013,08,13,12,15,20.60
2013,08,13,12,16,20.60
2013,08,13,12,17,20.60
2013,08,13,12,18,20.60
2013,08,13,12,19,20.70
2013,08,13,12,20,20.80
2013,08,13,12,21,20.90
2013,08,13,12,22,20.90
2013,08,13,12,23,21.00
2013,08,13,12,24,21.00
2013,08,13,12,25,21.00
2013,08,13,12,26,21.00
2013,08,13,12,27,21.10
2013,08,13,12,28,21.10
2013,08,13,12,29,21.20
2013,08,13,12,30,21.30
2013,08,13,12,31,21.30
2013,08,13,12,32,21.30
2013,08,13,12,33,21.30
2013,08,13,12,34,21.30
2013,08,13,12,35,21.30
2013,08,13,12,36,21.30
2013,08,13,12,37,21.30
2013,08,13,12,38,21.30
2013,08,13,12,39,21.20
2013,08,13,12,40,21.30
2013,08,13,12,41,21.20
2013,08,13,12,42,21.30
2013,08,13,12,43,21.30
2013,08,13,12,44,21.30
2013,08,13,12,45,21.20
2013,08,13,12,46,21.20
2013,08,13,12,47,21.20
2013,08,13,12,48,21.20
2013,08,13,12,49,21.20
2013,08,13,12,50,21.10
2013,08,13,12,51,21.10
2013,08,13,12,52,21.10
2013,08,13,12,53,21.10
2013,08,13,12,54,21.10
2013,08,13,12,55,21.00
2013,08,13,12,56,21.10
2013,08,13,12,57,21.10
2013,08,13,12,58,21.20
2013,08,13,12,59,21.20
2013,08,13,13,00,21.20
2013,08,13,13,01,21.20
2013,08,13,13,02,21.30
2013,08,13,13,03,21.40
2013,08,13,13,04,21.40
2013,08,13,13,05,21.30
2013,08,13,13,06,21.20
2013,08,13,13,07,21.10
2013,08,13,13,08,21.10
2013,08,13,13,09,21.10
2013,08,13,13,10,21.10
2013,08,13,13,11,21.20
2013,08,13,13,12,21.30
2013,08,13,13,13,21.50
2013,08,13,13,14,21.60
2013,08,13,13,15,21.70
2013,08,13,13,16,21.70
2013,08,13,13,17,21.80
2013,08,13,13,18,21.80
2013,08,13,13,19,21.90
2013,08,13,13,20,22.10
2013,08,13,13,21,22.10
2013,08,13,13,22,22.20
2013,08,13,13,23,22.20
2013,08,13,13,24,22.20
2013,08,13,13,25,22.10
2013,08,13,13,26,22.10
2013,08,13,13,27,22.20
2013,08,13,13,28,22.20
2013,08,13,13,29,22.10
2013,08,13,13,30,22.00
2013,08,13,13,31,22.10
2013,08,13,13,32,22.10
2013,08,13,13,33,22.10
2013,08,13,13,34,22.00
2013,08,13,13,35,22.00
2013,08,13,13,36,22.00
2013,08,13,13,37,22.00
2013,08,13,13,38,22.10
2013,08,13,13,39,22.20
2013,08,13,13,40,22.10
2013,08,13,13,41,22.10
2013,08,13,13,42,22.20
2013,08,13,13,43,22.20
2013,08,13,13,44,22.20
2013,08,13,13,45,22.20
2013,08,13,13,46,22.20
2013,08,13,13,47,22.30
2013,08,13,13,48,22.40
2013,08,13,13,49,22.50
2013,08,13,13,50,22.70
2013,08,13,13,51,22.80
2013,08,13,13,52,22.70
2013,08,13,13,53,22.70
2013,08,13,13,54,22.70
2013,08,13,13,55,22.70
2013,08,13,13,56,22.70
2013,08,13,13,57,22.70
2013,08,13,13,58,22.70
2013,08,13,13,59,22.70
2013,08,13,14,00,22.70
2013,08,13,14,01,22.80
2013,08,13,14,02,22.90
2013,08,13,14,03,23.00
2013,08,13,14,04,23.00
2013,08,13,14,05,23.00
2013,08,13,14,06,23.00
2013,08,13,14,07,23.10
2013,08,13,14,08,23.20
2013,08,13,14,09,23.30
2013,08,13,14,10,23.30
2013,08,13,14,11,23.30
2013,08,13,14,12,23.20
2013,08,13,14,13,23.20
2013,08,13,14,14,23.10
2013,08,13,14,15,23.10
2013,08,13,14,16,23.10
2013,08,13,14,17,23.10
2013,08,13,14,18,23.10
2013,08,13,14,19,23.10
2013,08,13,14,20,23.20
2013,08,13,14,21,23.30
2013,08,13,14,22,23.30
2013,08,13,14,23,23.20
2013,08,13,14,24,23.10
2013,08,13,14,25,23.10
2013,08,13,14,26,23.10
2013,08,13,14,27,23.10
2013,08,13,14,28,23.10
2013,08,13,14,29,23.10
2013,08,13,14,30,23.20
2013,08,13,14,31,23.20
2013,08,13,14,32,23.20
2013,08,13,14,33,23.30
2013,08,13,14,34,23.40
2013,08,13,14,35,23.40
2013,08,13,14,36,23.40
2013,08,13,14,37,23.30
2013,08,13,14,38,23.30
2013,08,13,14,39,23.20
2013,08,13,14,40,23.30
2013,08,13,14,41,23.30
2013,08,13,14,42,23.40
2013,08,13,14,43,23.40
2013,08,13,14,44,23.50
2013,08,13,14,45,23.60
2013,08,13,14,46,23.60
2013,08,13,14,47,23.50
2013,08,13,14,48,23.40
2013,08,13,14,49,23.30
2013,08,13,14,50,23.30
2013,08,13,14,51,23.20
2013,08,13,14,52,23.20
2013,08,13,14,53,23.20
2013,08,13,14,54,23.30
2013,08,13,14,55,23.30
2013,08,13,14,56,23.40
2013,08,13,14,57,23.40
2013,08,13,14,58,23.50
2013,08,13,14,59,23.60
2013,08,13,15,00,23.60
2013,08,13,15,01,23.60
2013,08,13,15,02,23.60
2013,08,13,15,03,23.60
2013,08,13,15,04,23.60
2013,08,13,15,05,23.60
2013,08,13,15,06,23.60
2013,08,13,15,07,23.60
2013,08,13,15,08,23.60
2013,08,13,15,09,23.60
2013,08,13,15,10,23.60
2013,08,13,15,11,23.60
2013,08,13,15,12,23.60
2013,08,13,15,13,23.50
2013,08,13,15,14,23.50
2013,08,13,15,15,23.60
2013,08,13,15,16,23.70
2013,08,13,15,17,23.80
2013,08,13,15,18,23.80
2013,08,13,15,19,23.80
2013,08,13,15,20,23.70
2013,08,13,15,21,23.70
2013,08,13,15,22,23.60
2013,08,13,15,23,23.70
2013,08,13,15,24,23.80
2013,08,13,15,25,23.80
2013,08,13,15,26,23.80
2013,08,13,15,27,23.90
2013,08,13,15,28,23.90
2013,08,13,15,29,23.80
2013,08,13,15,30,23.70
2013,08,13,15,31,23.60
2013,08,13,15,32,23.50
2013,08,13,15,33,23.50
2013,08,13,15,34,23.50
2013,08,13,15,35,23.50
2013,08,13,15,36,23.40
2013,08,13,15,37,23.40
2013,08,13,15,38,23.40
2013,08,13,15,39,23.50
2013,08,13,15,40,23.50
2013,08,13,15,41,23.60
2013,08,13,15,42,23.70
2013,08,13,15,43,23.80
2013,08,13,15,44,23.90
2013,08,13,15,45,24.00
2013,08,13,15,46,24.10
2013,08,13,15,47,24.10
2013,08,13,15,48,24.00
2013,08,13,15,49,23.90
2013,08,13,15,50,23.80
2013,08,13,15,51,23.80
2013,08,13,15,52,23.80
2013,08,13,15,53,23.80
2013,08,13,15,54,23.80
2013,08,13,15,55,23.80
2013,08,13,15,56,23.80
2013,08,13,15,57,23.80
2013,08,13,15,58,23.70
2013,08,13,15,59,23.60
2013,08,13,16,00,23.60
2013,08,13,16,01,23.50
2013,08,13,16,02,23.50
2013,08,13,16,03,23.40
2013,08,13,16,04,23.30
2013,08,13,16,05,23.30
2013,08,13,16,06,23.30
2013,08,13,16,07,23.20
2013,08,13,16,08,23.20
2013,08,13,16,09,23.30
2013,08,13,16,10,23.30
2013,08,13,16,11,23.40
2013,08,13,16,12,23.60
2013,08,13,16,13,23.50
2013,08,13,16,14,23.50
2013,08,13,16,15,23.40
2013,08,13,16,16,23.40
2013,08,13,16,17,23.40
2013,08,13,16,18,23.50
2013,08,13,16,19,23.50
2013,08,13,16,20,23.60
2013,08,13,16,21,23.70
2013,08,13,16,22,23.80
2013,08,13,16,23,23.80
2013,08,13,16,24,23.80
2013,08,13,16,25,23.80
2013,08,13,16,26,23.80
2013,08,13,16,27,23.80
2013,08,13,16,28,23.90
2013,08,13,16,29,23.90
2013,08,13,16,30,23.90
2013,08,13,16,31,23.90
2013,08,13,16,32,23.80
2013,08,13,16,33,23.80
2013,08,13,16,34,23.80
2013,08,13,16,35,23.80
2013,08,13,16,36,23.80
2013,08,13,16,37,23.80
2013,08,13,16,38,23.80
2013,08,13,16,39,23.70
2013,08,13,16,40,23.70
2013,08,13,16,41,23.70
2013,08,13,16,42,23.80
2013,08,13,16,43,23.80
2013,08,13,16,44,23.90
2013,08,13,16,45,23.90
2013,08,13,16,46,23.90
2013,08,13,16,47,24.00
2013,08,13,16,48,24.00
2013,08,13,16,49,24.00
2013,08,13,16,50,24.00
2013,08,13,16,51,24.00
2013,08,13,16,52,24.00
2013,08,13,16,53,24.10
2013,08,13,16,54,24.10
2013,08,13,16,55,24.10
2013,08,13,16,56,24.10
2013,08,13,16,57,24.10
2013,08,13,16,58,24.20
2013,08,13,16,59,24.20
2013,08,13,17,00,24.30
2013,08,13,17,01,24.30
2013,08,13,17,02,24.30
2013,08,13,17,03,24.20
2013,08,13,17,04,24.20
2013,08,13,17,05,24.10
2013,08,13,17,06,24.00
2013,08,13,17,07,24.00
2013,08,13,17,08,24.00
2013,08,13,17,09,24.00
2013,08,13,17,10,23.90
2013,08,13,17,11,23.90
2013,08,13,17,12,24.00
2013,08,13,17,13,24.00
2013,08,13,17,14,23.90
2013,08,13,17,15,23.90
2013,08,13,17,16,23.90
2013,08,13,17,17,23.80
2013,08,13,17,18,23.80
2013,08,13,17,19,23.80